カタログに戻る

STARLINK-30956

運用中通信VLEO
NORAD 58481·PAYLOAD·🇺🇸 United States

打ち上げ Dec 3, 2023 から Cape Canaveral Space Force Station

Loading…

次のパス (今後24時間)

TLE

最新Source: CelesTrak SupGP

元期: Sep 14, 2026, 22:06 UTC

1 58481C 23186J   26257.92131944  .00057328  00000+0  20759-2 0  2577
2 58481  43.0010  52.5980 0001486 271.8135  53.7812 15.27557637    16

AllMySatでSTARLINK-30956をリアルタイム追跡

Download on the App Store